2022/12/19 00:00:00,15.9,-4.4
2022/12/19 00:10:00,15.8,-4.2
2022/12/19 00:20:00,15.7,-4.4
2022/12/19 00:30:00,15.6,-4.3
2022/12/19 00:40:00,15.6,-4.5
2022/12/19 00:50:00,15.6,-4.6
2022/12/19 01:00:00,15.6,-4.8
2022/12/19 01:10:00,15.5,-4.8
2022/12/19 01:20:00,15.4,-4.6
2022/12/19 01:30:00,15.3,-4.7
2022/12/19 01:40:00,15.3,-4.5
2022/12/19 01:50:00,15.3,-4.5
2022/12/19 02:00:00,15.2,-4.3
2022/12/19 02:10:00,15.1,-4.2
2022/12/19 02:20:00,15.0,-4.2
2022/12/19 02:30:00,15.0,-4.6
2022/12/19 02:40:00,15.0,-4.7
2022/12/19 02:50:00,15.0,-4.9
2022/12/19 03:00:00,15.0,-4.9
2022/12/19 03:10:00,14.9,-5.0
2022/12/19 03:20:00,14.9,-5.1
2022/12/19 03:30:00,14.8,-5.3
2022/12/19 03:40:00,14.8,-5.4
2022/12/19 03:50:00,14.7,-5.3
2022/12/19 04:00:00,14.7,-5.8
2022/12/19 04:10:00,14.7,-5.3
2022/12/19 04:20:00,14.5,-5.0
2022/12/19 04:30:00,14.5,-5.0
2022/12/19 04:40:00,14.5,-5.0
2022/12/19 04:50:00,14.4,-5.2
2022/12/19 05:00:00,14.4,-4.9
2022/12/19 05:10:00,14.3,-4.8
2022/12/19 05:20:00,14.2,-4.8
2022/12/19 05:30:00,14.2,-4.6
2022/12/19 05:40:00,14.2,-4.8
2022/12/19 05:50:00,14.1,-4.8
2022/12/19 06:00:00,14.1,-5.1
2022/12/19 06:10:00,14.0,-4.9
2022/12/19 06:20:00,14.0,-5.0
2022/12/19 06:30:00,14.0,-4.9
2022/12/19 06:40:00,13.9,-4.7
2022/12/19 06:50:00,13.8,-4.4
2022/12/19 07:00:00,13.8,-4.3
2022/12/19 07:10:00,13.8,-4.3
2022/12/19 07:20:00,13.7,-4.3
2022/12/19 07:30:00,13.7,-4.3
2022/12/19 07:40:00,13.7,-4.1
2022/12/19 07:50:00,13.6,-3.9
2022/12/19 08:00:00,13.6,-3.6
2022/12/19 08:10:00,13.5,-3.2
2022/12/19 08:20:00,13.5,-3.0
2022/12/19 08:30:00,13.4,-2.6
2022/12/19 08:40:00,13.4,-2.5
2022/12/19 08:50:00,13.3,-2.5
2022/12/19 09:00:00,13.3,-1.7
2022/12/19 09:10:00,13.2,-1.6
2022/12/19 09:20:00,13.1,-1.3
2022/12/19 09:30:00,13.1,-1.4
2022/12/19 09:40:00,13.1,-0.8
2022/12/19 09:50:00,13.1,-0.4
2022/12/19 10:00:00,12.9,-0.3
2022/12/19 10:10:00,12.9,-0.6
2022/12/19 10:20:00,12.8,-0.2
2022/12/19 10:30:00,12.7,-0.7
2022/12/19 10:40:00,12.7,-0.7
2022/12/19 10:50:00,12.9,-1.2
2022/12/19 11:00:00,13.3,-1.7
2022/12/19 11:10:00,14.2,-1.4
2022/12/19 11:20:00,14.2,-1.7
2022/12/19 11:30:00,14.6,-1.8
2022/12/19 11:40:00,15.2,-2.1
2022/12/19 11:50:00,15.4,-1.6
2022/12/19 12:00:00,15.3,-1.4
2022/12/19 12:10:00,15.5,-0.2
2022/12/19 12:20:00,16.1, 0.0
2022/12/19 12:30:00,15.6,-0.7
2022/12/19 12:40:00,16.0, 0.1
2022/12/19 12:50:00,16.1, 0.6
2022/12/19 13:00:00,15.9, 0.1
2022/12/19 13:10:00,15.8, 0.0
2022/12/19 13:20:00,15.9,-0.4
2022/12/19 13:30:00,16.2,-0.2
2022/12/19 13:40:00,16.1,-0.5
2022/12/19 13:50:00,16.2, 0.0
2022/12/19 14:00:00,16.0,-0.1
2022/12/19 14:10:00,16.0,-0.8
2022/12/19 14:20:00,16.1,-0.1
2022/12/19 14:30:00,16.0,-0.1
2022/12/19 14:40:00,16.0,-0.5
2022/12/19 14:50:00,16.2,-0.4
2022/12/19 15:00:00,16.3,-0.2
2022/12/19 15:10:00,16.2,-0.4
2022/12/19 15:20:00,16.1,-0.7
2022/12/19 15:30:00,16.1,-0.5
2022/12/19 15:40:00,16.0,-0.6
2022/12/19 15:50:00,15.9,-0.7
2022/12/19 16:00:00,16.0,-0.9
2022/12/19 16:10:00,16.0,-0.9
2022/12/19 16:20:00,16.0,-1.0
2022/12/19 16:30:00,16.0,-1.1
2022/12/19 16:40:00,15.9,-1.2
2022/12/19 16:50:00,15.8,-1.5
2022/12/19 17:00:00,15.7,-1.7
2022/12/19 17:10:00,15.9,-1.7
2022/12/19 17:20:00,16.5,-1.8
2022/12/19 17:30:00,17.1,-2.0
2022/12/19 17:40:00,16.9,-2.3
2022/12/19 17:50:00,16.8,-2.1
2022/12/19 18:00:00,16.8,-2.1
2022/12/19 18:10:00,16.6,-1.8
2022/12/19 18:20:00,16.6,-2.0
2022/12/19 18:30:00,16.6,-2.2
2022/12/19 18:40:00,16.5,-2.0
2022/12/19 18:50:00,16.5,-2.1
2022/12/19 19:00:00,16.4,-1.9
2022/12/19 19:10:00,16.3,-1.7
2022/12/19 19:20:00,16.1,-2.0
2022/12/19 19:30:00,16.1,-1.7
2022/12/19 19:40:00,16.5,-1.6
2022/12/19 19:50:00,16.4,-1.8
2022/12/19 20:00:00,16.4,-1.9
2022/12/19 20:10:00,16.4,-1.8
2022/12/19 20:20:00,16.3,-1.7
2022/12/19 20:30:00,16.2,-1.6
2022/12/19 20:40:00,16.1,-1.7
2022/12/19 20:50:00,16.0,-1.7
2022/12/19 21:00:00,16.1,-1.8
2022/12/19 21:10:00,16.3,-1.8
2022/12/19 21:20:00,16.2,-1.9
2022/12/19 21:30:00,16.1,-2.0
2022/12/19 21:40:00,16.3,-1.9
2022/12/19 21:50:00,16.6,-2.0
2022/12/19 22:00:00,16.6,-1.9
2022/12/19 22:10:00,16.5,-2.1
2022/12/19 22:20:00,16.4,-2.0
2022/12/19 22:30:00,16.5,-1.9
2022/12/19 22:40:00,16.9,-2.1
2022/12/19 22:50:00,17.8,-2.1
2022/12/19 23:00:00,18.2,-2.0
2022/12/19 23:10:00,18.0,-2.0
2022/12/19 23:20:00,18.1,-1.8
2022/12/19 23:30:00,18.5,-1.9
2022/12/19 23:40:00,18.6,-2.0
2022/12/19 23:50:00,18.6,-1.9
